Starlink 32587

operational
NORAD ID: 62180 Int'l Des: 2024-225 Owner: SPXS Country: US Constellation: starlink
LEOCIRCULAR

Starlink 32587について

説明を読み込み中...

リアルタイム位置

3D地球を読み込み中...

次回通過

高度履歴

Altitude vs Time

uPlot chart will show altitude changes over time

軌道要素

1 62180U 24225T 26035.01761681 .00010870 00000-0 91721-3 0 9997
2 62180 69.9985 249.1701 0003052 268.6216 91.4593 14.98338631 64838
Epoch: Feb 4, 2026 • Age: 21 hours

現在のステータス

高度 581.3 km
速度 7.57 km/s
衛星直下点 51.33°N, 62.09°W
打ち上げ日 Nov 30, 2024
運用期間 1.1 years
タイプ internet

技術仕様

分類 Payload
質量 730.00 kg
乾燥質量 700.00 kg
総質量 730.00 kg
長さ 0.30 m
直径 4.10 m
スパン 29.00 m
形状 Box + pan
製造者 SPXS
バスタイプ Starlink V2M
フェーズステータス In Orbit
所有者/国 SPXS/US

大規模コンステレーション

Loading constellations...